Regional Weather Roundup
Issued by NWS Charleston, SC

Current Version | Previous Version | Text Only | Print | Product List | Glossary Off
Versions: 1 2 3 4 5 6 7 8 9 10 11 12 13 14 15 16 17 18 19 20 21 22 23 24 25 26 27 28 29 30 31 32 33 34 35 36 37 38 39 40 41 42 43 44 45 46 47 48 49 50

000
ASUS42 KCHS 261527
RWRCHS

REGIONAL WEATHER ROUNDUP
NATIONAL WEATHER SERVICE CHARLESTON SC
1100 AM EDT MON JUN 26 2017

NOTE: "FAIR" INDICATES FEW OR NO CLOUDS BELOW 12,000 FEET WITH NO
SIGNIFICANT WEATHER AND/OR OBSTRUCTIONS TO VISIBILITY.

NOT ALL STATIONS ARE QUALITY CONTROLLED. USE DATA WITH CAUTION...
ESPECIALLY DEWPOINT OBSERVATIONS.

SCZ027-030-031-034>040-042>050-261600-
...SOUTHEAST SOUTH CAROLINA...

CITY           SKY/WX    TMP DP  RH WIND       PRES   REMARKS
N CHARLESTON   PTSUNNY   82  66  58 NE14      30.10R
WATERFRONT PRK   N/A     80  72  76 NE10      30.07S
JOHNS ISLAND   PTSUNNY   81  70  69 NE13      30.09S
PINOPOLIS      NOT AVBL
MONCKS CORNER  FAIR      81  61  50 NE13G18   30.11S
SUMMERVILLE    FAIR      81  68  65 N9        30.11S
BEAUFORT MCAS  MOSUNNY   82  73  74 NE8       30.09S
BEAUFORT ARPT  PTSUNNY   81  73  78 NE10      30.09S
HILTON HEAD IS PTSUNNY   82  75  78 NE9       30.09S
WALTERBORO     SUNNY     81  66  61 NE7       30.11S
ALLENDALE      PTSUNNY   79  64  61 VRB5G14   30.12R

...SOUTHERN MIDLANDS AND PEE DEE...

CITY           SKY/WX    TMP DP  RH WIND       PRES   REMARKS
GEORGETOWN     FAIR      79  64  61 NE9       30.12R
KINGSTREE      CLOUDY    79  55  44 NE7       30.13R
ORANGEBURG     PTSUNNY   80  56  43 NE13      30.13R
BARNWELL       PTSUNNY   79  63  57 NE7       30.14R
AIKEN          FAIR      79  52  38 NE16G22   30.19R
MANNING        FAIR      81  63  54 NE15G22   30.13R
COLUMBIA       CLOUDY    82  52  35 N12       30.14R
SUMTER         PTSUNNY   80  55  40 NE13G18   30.12R
FLORENCE       PTSUNNY   81  53  37 NE10      30.14R
MYRTLE BEACH   PTSUNNY   79  61  53 MISG      30.11S
N MYRTLE BEACH PTSUNNY   78  62  57 NE8       30.10S

$$

GAZ063-065-086>088-099>101-113>116-118-119-134>141-150-261600-
...SOUTHEAST GEORGIA...

CITY           SKY/WX    TMP DP  RH WIND       PRES   REMARKS
SAVANNAH ARPT  CLOUDY    83  71  67 E7        30.10S
HUNTER AAF     PTSUNNY   81  73  78 NE5       30.07S
FORT STEWART   CLOUDY    79  73  83 N7        30.08R
STATESBORO     PTSUNNY   82  70  66 NE7       30.11S
SYLVANIA       SUNNY     82  69  66 NE8       30.12S
CLAXTON        CLOUDY    80  73  79 NE8       30.11R

...CSRA...CENTRAL AND FAR SOUTHEAST GEORGIA...

CITY           SKY/WX    TMP DP  RH WIND       PRES   REMARKS
THOMSON        MOSUNNY   79  60  53 SE13      30.21S
AUGUSTA-BUSH   CLOUDY   N/A N/A N/A MISG      30.14R
AUGUSTA-DANIEL CLOUDY    80  58  46 NE9       30.15S
SWAINSBORO     FAIR      81  68  65 NE8       30.14R
VIDALIA        PTSUNNY   84  73  70 NE7       30.11S HX  91
EASTMAN        CLOUDY    82  64  54 NE7       30.15R
HAZLEHURST     CLOUDY    80  77  90 NE3       30.10S
ALMA           PTSUNNY   84  73  69 NW7       30.10R HX  90
WAYCROSS       CLOUDY    87  76  69 CALM      30.09S HX  97
JESUP          PTSUNNY   82  72  69 NE7       30.09S
BAXLEY         CLOUDY    81  81 100 NE3       30.10S HX  91
BRUNSWICK      MOSUNNY   82  75  78 W5        30.09S
SAINT SIMONS   MOSUNNY   83  74  74 N6        30.08S

$$

SCZ027-028-034-036>038-045-046-048>050-GAZ119-141-261600-
...LAKE AND SUPPLEMENTAL COASTAL OBSERVATIONS...

STATION/POSITION TIME  TEMP    WIND        PRES    WAVE   SWELL
                       AIR SEA DIR/SP/G            HT/PER HT/PER/DIR
                 (UTC) (F)     (DEG/KT/KT) (MB)    (FT/S) (FT/S/D)
WINYAH BAY       1445   78      50/ 14     1019.0S
LAKE MURRAY      1450   79      30/  3/  6 1020.0R
ACE BASIN NERRS  1445   82      20/  4     1019.0S
FORT PULASKI     1500   79 84   10/  4/  6 1019.2
SAPELO ISLAND    1500   82        CALM     1019.0

$$

ANZ835-935-AMZ111-154-330-350-352-354-370-450-454-472-261600-
...C-MAN AND BUOY OBSERVATIONS...

STATION/POSITION TIME  TEMP    WIND        PRES    WAVE   SWELL
                       AIR SEA DIR/SP/G            HT/PER HT/PER/DIR
                 (UTC) (F)     (DEG/KT/KT) (MB)    (FT/S) (FT/S/D)
BUOY 41004       1510   72 81   70/ 10/ 14 1018.3
BUOY 41008       1450   80 82  310/  6/  8 1018.3R   2/ 9   2/120/ 9
FOLLY BEACH CMAN 1500   79      30/ 14/ 16 1019.5R
CAPERS NEARSHORE 1508   85 83   50/ 16/ 25 1018.3R
FRIPP NEARSHORE  1508   79 83   50/ 10/ 12 1018.1S


STATION/POSITION TIME  TEMP    WIND        PRES    WAVE   SWELL
                       AIR SEA DIR/SP/G            HT/PER HT/PER/DIR
                 (UTC) (F)     (DEG/KT/KT) (MB)    (FT/S) (FT/S/D)
5E ST. MARYS GA  1500      80                N/A     2/ 8
FRYING PAN BUOY  1510   77 80   80/ 12/ 14 1018.3
BUOY 41025       1450   77 80  360/ 10/ 12 1018.8    2/ 8   2/120/ 8
CAPE LOOKOUT NC  1500   78      50/  7/  8 1018.8S
BUOY 41002       1450   80 81  220/  8/ 10 1019.0R   3/ 6   3/250/ 6
BUOY 41010       1510   83 84  190/  8/ 10 1018.9
ST AUGUSTINE FL  1500   77 77   50/  7/  7 1019.1R


$$




USA.gov is the U.S. government's official web portal to all federal, state and local government web resources and services.